WAOOWARR

Guest
Details From WAOO - Banjarmasin Syamsudin Noor
To WARR - Surabaya Juanda
Flight Number -
Tags generated
Created
Modified
Stats Distance 264 nm / 490 km
Max Altitude 34,700 ft / 10,577 m
Waypoints 4
Social Downloads 4
Likes 0
Share VATSIM

Download

Looking for another format? Having issues loading an existing format? Contact us
Advertisement - Login to hide

Notes

Basic altitude profile: - Ascent Rate: 2500ft/min - Ascent Speed: 250kts - Cruise Altitude: 35000ft - Cruise Speed: 420kts - Descent Rate: 1500ft/min - Descent Speed: 250kts Options: - Use NATs: no - Use PACOTS: yes - Use low airways: yes - Use high airways: yes

Route

WAOO IKAPI W31 RAMPY WARR

ID Type Via Altitude Latitude Longitude Leg Dist Tot Dist Heading (true) Name
O WAOO APT - 0 ft / 0 m -3.44235˚ 114.76255˚ - 0 nm - Banjarmasin Syamsudin Noor
IKAPI FIX - 34,700 ft / 10,577 m -4.95602˚ 113.97689˚ 102 nm 102 nm 207° / 207° -
RAMPY FIX W31 (AWY-HI) 16,100 ft / 4,907 m -6.25016˚ 113.34601˚ 86 nm 188 nm 206° / 206° -
O WARR APT - 0 ft / 0 m -7.37983˚ 112.78686˚ 75 nm 264 nm 206° / 206° Surabaya Juanda

Altitude Profile

Advertisement - Login to hide

Weather


0- 5 10 15 20 25 30 35+ Temperature / ° C

Clouds and Precipitation
Forecast for 2017-12-17 18:00 UTC. Updated an hour ago

Ground ~20,000 ft ~40,000 ft Winds

WAOO

Details ICAO WAOO (BDJ)
Name Banjarmasin Syamsudin Noor
Region Indonesia
Timezone Asia/Makassar (UTC+8.0)
Stats Elevation 66 ft / 20 m (AMSL)
Location -3.442354° 114.762552°
Runways 1
Magnetic Variation 0.719° E

METAR

WAOO 171400Z 26005KT 230V290 9999 SCT017 27/25 Q1011

Decode

TAF

Not found

Departure Runways

ID Width Length Bearing (true) Bearing (mag) Surface Threshold Offset Overrun Length
10 148 ft / 45 m 8,208 ft / 2,502 m 100.45° 99.73° Asphalt 0 ft / 0 m 200 ft / 61 m
28 148 ft / 45 m 8,208 ft / 2,502 m 280.45° 279.73° Asphalt 0 ft / 0 m 200 ft / 61 m

WARR

Details ICAO WARR (SUB)
Name Surabaya Juanda
Region Indonesia
Timezone Asia/Jakarta (UTC+7.0)
Stats Elevation 9 ft / 3 m (AMSL)
Location -7.379832° 112.786858°
Runways 1
Magnetic Variation 0.952° E

METAR

WARR 171400Z 29008KT 8000 SCT020 25/24 Q1010 NOSIG

Decode

TAF

Not found

Destination Runways

ID Width Length Bearing (true) Bearing (mag) Surface Threshold Offset Overrun Length
10 148 ft / 45 m 9,836 ft / 2,998 m 99.32° 98.37° Asphalt 0 ft / 0 m 328 ft / 100 m
28 148 ft / 45 m 9,836 ft / 2,998 m 279.32° 278.37° Asphalt 0 ft / 0 m 328 ft / 100 m

Approach Navaids

Runway Type Ident Frequency Range Bearing (true) Bearing (mag) Slope Elevation
10 Localiser ISBY 110.10 MHz 18 nm / 33 km 99.30° 98.34° - 8 ft / 2 m (AMSL)
10 Glidescope ISBY 110.10 MHz 10 nm / 19 km 99.32° 98.36° 3.00° 9 ft / 3 m (AMSL)
10 DME ISBY 110.10 MHz 18 nm / 33 km - - - 8 ft / 2 m (AMSL)

Popular Alternatives